Regional Weather Roundup
Issued by NWS

Home | Current Version | Previous Version | Text Only | Print | Product List | Glossary Off
Versions: 1 2 3 4 5 6 7 8 9 10 11 12 13 14 15 16 17 18 19 20 21 22 23 24 25 26 27 28 29 30 31 32 33 34 35 36 37 38 39 40 41 42 43 44 45 46 47 48 49 50

000
ASUS43 KOAX 200310
RWRNE

WEATHER ROUNDUP FOR NEBRASKA
NATIONAL WEATHER SERVICE OMAHA NE
1000 PM CDT WED JUL 19 2017

NOTES: SATELLITE DATA IS BEING USED TO AUGMENT CLOUD COVER ABOVE
       12000 FEET.
       "FAIR" INDICATES FEW OR NO CLOUDS BELOW 12,000 FEET WITH NO
       SIGNIFICANT WEATHER AND/OR OBSTRUCTIONS TO VISIBILITY.


NEZ001>004-019>022-054>056-200400-
NEBRASKA PANHANDLE

CITY           SKY/WX    TMP DP  RH WIND       PRES   REMARKS
SCOTTSBLUFF    CLOUDY    86  59  39 E12       29.99R
ALLIANCE       CLOUDY    83  60  45 E10       30.03R
CHADRON        CLOUDY    82  51  34 NE10      29.99R
GORDON         FAIR      80  57  45 NE10      30.01R
KIMBALL        TSTM      81  53  38 CALM      30.10R
SIDNEY         CLOUDY    82  54  37 NE14      30.06R THUNDER
$$

NEZ057>060-069>072-079>082-200400-
SOUTHWEST NEBRASKA

CITY           SKY/WX    TMP DP  RH WIND       PRES   REMARKS
NORTH PLATTE   CLOUDY    91  57  31 S12       29.92R
IMPERIAL       CLEAR     88  54  31 S12       29.95R
LEXINGTON      CLEAR     82  66  57 S8        29.94R
MCCOOK         CLEAR     87  59  38 S12       29.93R
OGALLALA       CLOUDY    90  57  33 S12       29.94R
$$

NEZ005>010-023>029-035>040-094-200400-
NORTH CENTRAL NEBRASKA

CITY           SKY/WX    TMP DP  RH WIND       PRES   REMARKS
VALENTINE      CLOUDY    80  64  58 E8        29.95R
AINSWORTH      CLOUDY    76  69  80 SE16      29.95R
BROKEN BOW     CLEAR     89  63  41 S15G26    29.91R HX  90
O`NEILL        LGT RAIN  70  69  99 S29       29.95F
ORD            CLOUDY    78  65  63 N10       29.94R
THEDFORD       CLOUDY    84  67  57 NE16      29.97R
$$

NEZ041-046>049-061>064-073>077-083>087-200400-
SOUTH CENTRAL NEBRASKA

CITY           SKY/WX    TMP DP  RH WIND       PRES   REMARKS
GRAND ISLAND   CLOUDY    85  72  65 S14       29.93R HX  91
AURORA         CLOUDY    84  71  65 S10       29.93R
HASTINGS       CLEAR     86  65  49 S10       29.95R
HEBRON         CLEAR     84  70  62 S7        29.95R
HOLDREGE       CLEAR     80  64  58 S8        29.95R
KEARNEY        CLEAR     82  66  58 S12       29.94R
YORK           CLOUDY    84  72  65 S12       29.92S
$$

NEZ011>018-030>034-042>045-200400-
NORTHEAST NEBRASKA

CITY           SKY/WX    TMP DP  RH WIND       PRES   REMARKS
NORFOLK        CLOUDY    85  73  67 E6        29.95R HX  91
ALBION         CLOUDY    86  72  62 CALM      29.94R HX  92
BLAIR          CLOUDY    87  74  66 S9G16     29.92R HX  95
COLUMBUS       CLOUDY    88  70  55 S15       29.90R HX  93
FREMONT        CLOUDY    87  70  57 SE10      29.91R HX  92
TEKAMAH        CLOUDY    85  78  80 NE7       29.93R HX  96
WAYNE          CLOUDY    86  81  84 E7        29.96R HX 102
$$

NEZ050>053-065>068-078-088>093-200400-
SOUTHEAST NEBRASKA

CITY           SKY/WX    TMP DP  RH WIND       PRES   REMARKS
LINCOLN        CLOUDY    86  71  60 S12       29.91F HX  91
OMAHA EPPLEY   CLOUDY    88  77  69 S16       29.90S HX 100
BEATRICE       CLEAR     88  71  57 S12       29.95R HX  93
FALLS CITY     CLEAR     83  73  72 S9        29.96R
NEBRASKA CITY  CLOUDY    82  77  84 S10       29.95S HX  90
PLATTSMOUTH    CLOUDY    84  76  75 S13       29.93F HX  93
$$

NEZ044-045-051>053-067-200400-
OMAHA AREA

CITY           SKY/WX    TMP DP  RH WIND       PRES   REMARKS
OMAHA EPPLEY   CLOUDY    88  77  69 S16       29.90S HX 100
BLAIR          CLOUDY    87  74  66 S9G16     29.92R HX  95
FREMONT        CLOUDY    87  70  57 SE10      29.91R HX  92
MILLARD        CLOUDY    87  76  71 SE6       29.91S HX  97
OFFUTT AFB     CLOUDY    85  77  77 SE10      29.91F HX  95
PLATTSMOUTH    CLOUDY    84  76  75 S13       29.93F HX  93
WAHOO          FAIR      83  71  67 SE7       29.91R
$$




USA.gov is the U.S. government's official web portal to all federal, state and local government web resources and services.